Zurück zum Katalog

ONEWEB-0331

AktivKommunikationPO
NORAD 49198·PAYLOAD·🇬🇧 United Kingdom

Gestartet Sep 14, 2021 von Baikonur Cosmodrome

Loading…

Nächste Überflüge (nächste 24 Stunden)

TLE

AktuellSource: CelesTrak SupGP

Epoche: Sep 14, 2026, 15:05 UTC

1 49198C 21083N   26257.62897407  .00001902  00000+0  48301-2 0  2576
2 49198  87.9174 317.6837 0002109 107.1794   4.6911 13.18687522    10

Verfolge ONEWEB-0331 in Echtzeit mit AllMySat

Download on the App Store